Location: Cornigliano Stazione
(44.4167°N, 8.8667°E)
Time: 17:02:59
(UTC+00:00)

Daily predictions for brighter satellites

Satellite Brightness Start Highest point End
(mag) Time Altitude Azimuth Time Altitude Azimuth Time Altitude Azimuth
H-2A ROCKET BODY 4.1 19:31:04 10° SSW 19:34:40 20° SSE 19:42:40 10° ESE
Cosmos 1745 Rocket 4.2 19:40:25 10° SSE 19:46:22 52° E 19:52:24 10° NNE
Resurs 1-3 3.8 19:45:34 10° S 19:49:57 75° WSW 19:54:22 10° NNW
Cosmos 1125 Rocket 3.6 19:46:16 10° NNW 19:51:33 85° WSW 19:56:49 10° SSE
Cosmos 1300 4.4 19:49:58 10° NNW 19:53:28 34° W 19:56:55 10° SSW
H-2A R/B 4.4 19:50:44 10° SW 19:55:03 24° W 19:59:23 10° NW
Meteor 1-21 Rocket 4.4 19:49:34 10° S 19:55:23 63° E 20:01:15 10° NNE
SPOT 1/Viking Rocket 4.4 19:51:45 10° SE 19:56:21 34° ENE 20:01:00 10° N
VEP-3 4.4 19:56:55 10° SSW 19:59:48 14° SSE 20:03:17 10° SE
Cosmos 2322 Rocket 2.5 19:55:14 10° SSW 20:00:49 72° WNW 20:06:27 10° NNE
SL-08 ROCKET BODY 4.4 19:55:56 10° S 20:01:48 68° E 20:07:48 10° NNE
SPOT 3 Rocket 4.1 19:57:10 10° S 20:02:17 60° WSW 20:07:29 10° NNW
NOSS 7 (D) 3.7 20:00:10 10° SSW 20:03:03 80° SE 20:05:45 10° NE
Cosmos 2237 4.2 19:57:51 10° SSW 20:03:32 70° ESE 20:09:15 10° NNE
OAO 2 Rocket 4.5 20:00:35 10° SW 20:04:56 26° S 20:09:19 10° ESE
Cosmos 1328 4.5 20:02:24 10° SSE 20:06:02 36° E 20:09:41 10° NNE
Cosmos 1455 2.2 20:09:00 10° N 20:12:52 75° E 20:16:42 10° SSE
Cosmos 1461 4.3 20:08:48 10° NW 20:13:10 38° WSW 20:17:33 10° S
Cosmos 1825 Rocket 3.9 20:11:03 10° SSE 20:15:19 50° E 20:19:39 10° NNE
ATLAS CENTAUR R/B 3.1 20:16:20 10° N 20:19:06 19° NE 20:21:50 10° E
Cosmos 1703 3.3 20:16:06 10° S 20:19:55 60° E 20:23:45 10° NNE
COSMOS 2428 3.6 20:16:03 10° SSE 20:20:51 29° ESE 20:25:39 10° NE
Cosmos 1812 Rocket 4.0 20:18:49 10° NNW 20:23:06 61° W 20:27:21 10° S
SL-24 R/B - RUBIN 2 4.5 20:17:41 10° SSW 20:23:31 59° ESE 20:29:56 10° NE
Cosmos 2322 3.9 20:19:05 10° S 20:24:36 53° ESE 20:30:09 10° NE
Cosmos 1844 3.9 20:19:02 10° NNW 20:24:47 64° ENE 20:29:32 15° SE
Delta 2 Rocket 4.4 20:24:46 10° SW 20:27:12 18° S 20:28:10 17° SSE
Cosmos 783 Rocket 4.5 20:25:32 10° SSW 20:30:47 81° ESE 20:36:02 10° NNE
Cosmos 1709 Rocket 4.1 20:25:11 10° S 20:31:23 64° E 20:37:40 10° NNE
Cosmos 2263 Rocket 4.3 20:28:46 10° NW 20:32:42 20° W 20:36:37 10° SW
NOSS 3-3 (A) 4.2 20:27:43 10° S 20:33:06 42° ESE 20:39:03 10° NE
NOSS 3-3 (C) 4.3 20:27:50 10° S 20:33:13 41° ESE 20:39:10 10° NE
MetOp-B 4.4 20:28:06 10° S 20:33:26 71° WSW 20:38:48 10° NNW
Nadezhda 1 Rocket 4.3 20:27:24 10° NNW 20:33:47 70° W 20:40:06 10° S
Cosmos 2237 Rocket 3.9 20:33:11 13° ESE 20:34:49 15° E 20:37:49 10° ENE
Terra 2.9 20:31:40 15° ESE 20:34:56 32° ENE 20:39:09 10° N
Atlas Centaur 2 3.6 20:30:39 10° SW 20:35:20 23° S 20:38:47 16° SE
CARTOSAT-1 4.0 20:32:57 17° SE 20:35:59 47° ENE 20:40:09 10° N
Cosmos 2333 4.2 20:30:50 10° S 20:36:22 63° ESE 20:42:01 10° NNE
Cosmos 2219 Rocket 2.5 20:31:34 10° S 20:36:49 43° ESE 20:42:05 10° NE
Cosmos 2360 Rocket 2.6 20:33:05 10° SW 20:38:42 68° WNW 20:44:22 10° NNE
IGS 5A 3.5 20:35:34 14° S 20:39:09 80° WSW 20:43:20 10° NNW
IRIS 4.2 20:39:53 10° WSW 20:42:41 38° S 20:43:19 31° SE
DELTA 2 R/B (1) 4.5 20:39:15 10° SSW 20:43:49 26° SSE 20:48:24 10° E
Cosmos 2333 Rocket 2.3 20:41:01 10° S 20:46:33 57° ESE 20:52:09 10° NNE
Resurs 01 Rocket 3.5 20:47:26 10° SSW 20:51:07 26° W 20:54:50 10° NW
ATLAS 2AS CENTAUR R/B 4.2 20:44:58 10° NNW 20:51:44 32° NNE 20:58:01 10° E
Cosmos 1315 Rocket 3.4 20:48:13 10° N 20:52:08 43° ENE 20:54:13 24° SE
Cosmos 1818 4.4 20:48:52 10° SW 20:54:11 55° NW 20:59:33 10° NNE
Cosmos-2242 3.4 20:51:21 10° NNW 20:55:39 62° W 20:59:06 15° S
Cosmos 773 Rocket 4.0 20:51:19 10° SSW 20:56:37 88° ESE 21:01:57 10° NNE
ERS-1 Rocket 2.9 20:56:51 20° SSE 21:00:23 88° ENE 21:05:28 10° NNW
Cosmos 2221 3.6 20:56:38 10° N 21:00:36 32° ENE 21:02:29 23° ESE
GEOS 3 Rocket 4.1 20:58:42 10° NNE 21:04:04 67° NW 21:09:24 10° SW
USA 215 3.2 21:00:47 10° NE 21:07:22 78° SE 21:13:55 10° SW
Cosmos 1892 4.1 21:07:02 21° ESE 21:07:34 22° E 21:10:31 10° NE
Cosmos 2278 Rocket 3.0 21:04:19 10° NNW 21:09:40 40° ENE 21:13:09 20° ESE
ATLAS 5 CENTAUR R/B 3.0 21:07:05 10° WSW 21:11:02 40° NW 21:15:27 10° NNE
Meteor 1-11 4.3 21:05:32 10° SSW 21:11:08 80° W 21:16:51 10° N
Cosmos 1844 Rocket 3.5 21:09:12 10° NW 21:14:26 43° WSW 21:18:16 17° S
Cosmos 1400 Rocket 4.1 21:11:18 10° NNW 21:14:55 34° W 21:17:41 15° SSW
SPOT 5 3.0 21:13:56 23° S 21:17:08 75° WSW 21:21:59 10° NNW
SL-16 R/B 4.1 21:18:56 12° E 21:19:14 12° E 21:21:10 10° ENE
Lacrosse 5 rocket 4.3 21:18:16 10° NW 21:20:31 14° N 21:22:42 10° NNE
USA 81 4.2 21:19:52 16° SSW 21:24:01 71° W 21:29:19 10° N
Cosmos 2058 3.6 21:25:00 32° ESE 21:25:57 37° E 21:29:47 10° NNE
BREEZE M DEB (TANK) 2.7 21:26:02 10° WNW 21:27:38 34° WSW 21:27:38 34° WSW
Cosmos 1408 4.0 21:29:06 22° E 21:29:06 22° E 21:31:53 10° NE
Cosmos 2181 Rocket 4.3 21:23:39 10° NNW 21:29:56 67° W 21:34:15 21° S
In-Cosmos 22 Rocket 4.3 21:29:55 31° SSE 21:32:15 54° E 21:37:25 10° NNE
Cosmos 2074 Rocket 3.9 21:29:15 24° S 21:33:10 76° E 21:39:23 10° N
TSX-5 4.3 21:32:53 10° NNW 21:36:19 47° ENE 21:37:36 34° ESE
Cosmos 1076 Rocket 3.9 21:36:08 37° SE 21:37:08 45° E 21:41:13 10° NNE
Cosmos 1680 Rocket 3.9 21:35:42 33° SSE 21:37:28 44° ESE 21:42:31 10° NNE
USA 267 3.5 21:34:05 18° ESE 21:39:09 69° NE 21:45:41 10° NW
Cosmos 2084 3.5 21:42:23 10° NW 21:46:50 69° SW 21:48:05 44° SSE
Cosmos 1842 Rocket 3.7 21:43:08 10° NNW 21:47:28 67° W 21:49:02 37° SSW
Cosmos 2151 4.3 21:47:18 25° E 21:47:40 25° E 21:51:13 10° NNE
JB-3 4.2 21:44:56 10° N 21:48:47 83° WNW 21:49:57 44° SSW
OAO 2 Rocket 4.4 21:44:31 10° WSW 21:48:29 28° SSW 21:48:29 28° SSW
MTI 4.1 21:49:41 10° N 21:52:43 58° WNW 21:53:10 51° WSW
Cosmos 923 Rocket 3.9 21:52:19 30° SSW 21:54:57 82° ESE 22:00:16 10° NNE
Cosmos 2327 Rocket 4.4 21:52:14 31° S 21:55:20 76° E 22:01:30 10° N
Cosmos 1825 3.1 21:58:09 34° E 21:58:09 34° E 22:01:32 10° NNE
ATLAS CENTAUR R/B 1.6 21:54:41 10° NW 21:58:10 42° WSW 21:58:26 42° SW
ALOS 2 4.1 21:58:03 22° E 21:59:23 26° ENE 22:03:01 10° N
Cosmos 1980 3.6 21:56:55 30° SSW 21:59:47 76° ESE 22:05:27 10° NNE
Cosmos 44 4.4 22:05:15 24° E 22:05:15 24° E 22:07:59 10° ENE
COSMOS 2428 3.7 21:59:29 10° SW 22:04:53 45° WNW 22:10:20 10° NNE
Cosmos 1869 4.1 22:04:33 10° NNW 22:08:22 44° W 22:09:23 36° SW
Cosmos 1295 Rocket 4.4 22:06:31 37° SSE 22:09:04 70° E 22:15:09 10° NNE
GP-B 4.3 22:07:01 10° NNE 22:10:51 28° E 22:11:23 27° E
NOSS 0 Rocket 4.0 22:07:31 18° SSW 22:12:11 76° WNW 22:18:23 10° NNE
Terra 3.2 22:10:34 21° SW 22:12:39 30° W 22:16:50 10° NW
Cosmos 1624 Rocket 4.3 22:10:04 10° NNW 22:15:14 57° ENE 22:16:57 38° ESE
NOSS 3-4 (A) 3.9 22:08:33 10° NW 22:15:35 78° NE 22:19:47 30° SE
NOSS 3-4 (C) 3.9 22:08:40 10° NW 22:15:42 77° NE 22:19:55 30° SE
Cosmos 2237 Rocket 2.2 22:14:58 28° SSW 22:18:04 84° WNW 22:23:49 10° NNE
Genesis I 3.0 22:18:35 75° S 22:18:52 83° SE 22:22:48 10° NE
Cosmos 2344 3.5 22:16:02 25° SSW 22:20:44 70° ESE 22:28:35 10° NE
Cosmos 2219 Rocket 3.9 22:15:58 10° WSW 22:20:54 31° NW 22:25:52 10° N
BREEZE-M R/B 4.4 22:14:35 10° WNW 22:22:33 37° SW 22:23:36 34° SSW
Atlas Centaur 2 4.2 22:18:58 10° WSW 22:21:21 17° SW 22:21:21 17° SW
DELTA 2 R/B (1) 3.7 22:24:16 10° WSW 22:29:37 49° S 22:30:03 48° SSE
Cosmos 2333 Rocket 4.2 22:26:29 10° WSW 22:31:12 26° NW 22:35:58 10° N
Thor Agena Rocket 3.5 22:26:23 10° NNE 22:31:30 77° WNW 22:33:18 41° SSW
Cosmos 2221 4.3 22:34:31 10° NW 22:37:59 23° W 22:39:20 20° WSW
BREEZE-M DEB (TANK) 2.4 22:38:18 10° WNW 22:41:21 45° NNW 22:41:21 45° NNW
Iridium 2 4.2 22:38:31 10° NNW 22:42:14 49° W 22:42:26 48° WSW
Cosmos 1371 Rocket 4.0 22:37:44 10° NNW 22:43:00 75° WSW 22:44:15 52° S
Cosmos 1892 4.4 22:41:59 22° WSW 22:43:08 25° WNW 22:46:20 10° NNW
ATLAS 2AS CENTAUR R/B 2.7 22:36:00 10° NW 22:43:33 81° SW 22:46:25 39° SSE
EO 1 Del DPAF 3.7 22:40:53 10° N 22:44:33 52° WNW 22:44:59 48° W
Cosmos 1766 Rocket 3.5 22:44:24 65° SE 22:44:46 69° E 22:49:09 10° NNE
MOS 1-B Rocket 4.4 22:38:48 10° NNE 22:46:30 76° WNW 22:49:57 32° SSW
Okean 3 Rocket 3.4 22:47:03 69° S 22:47:34 85° E 22:52:02 10° N
Aureole 2 Rocket 3.5 22:47:08 10° NNW 22:48:59 36° N 22:48:59 36° N
Cosmos 1328 Rocket 3.7 22:45:45 10° N 22:50:01 57° E 22:50:25 54° ESE
USA 215 4.4 22:43:59 10° NE 22:50:06 44° NNW 22:56:13 10° W
Cosmos 1606 2.7 22:48:28 10° N 22:52:19 79° ENE 22:52:19 79° ENE
Cosmos 2218 Rocket 4.1 22:50:54 43° SSE 22:52:59 68° E 22:59:15 10° NNE
Cosmos 2278 Rocket 3.2 22:48:37 10° NW 22:53:38 33° WSW 22:54:59 29° SW
Cosmos 2297 3.7 22:49:36 10° NNW 22:55:23 76° ENE 22:57:11 45° SE
Cosmos 2366 rocket 4.0 22:56:35 44° SSE 22:58:39 71° E 23:04:59 10° NNE
Cosmos 1420 Rocket 4.1 22:53:56 10° NNW 22:59:13 72° ENE 23:00:36 49° SE
Cosmos 1633 4.0 23:01:11 29° ENE 23:01:11 29° ENE 23:03:51 10° NNE
Lacrosse 5 rocket 3.8 22:58:01 10° NNW 23:01:00 20° NNE 23:03:52 10° ENE
Cosmos 1943 Rocket 3.1 22:56:32 10° NNW 23:01:57 43° ENE 23:04:40 26° ESE
SL-16 R/B 2.1 23:00:46 49° SSW 23:02:23 83° ESE 23:08:06 10° NNE
Cosmos 1408 4.4 23:03:24 21° W 23:03:58 22° WNW 23:06:49 10° NNW
Cosmos 2056 Rocket 3.9 23:01:37 10° NNW 23:06:54 54° WSW 23:07:58 46° SW
Cosmos 1959 Rocket 4.4 23:06:20 47° S 23:08:17 85° E 23:14:30 10° N
Cosmos 1743 Rocket 4.2 23:12:36 40° E 23:12:44 40° E 23:16:48 10° NNE
Cosmos 2341 Rocket 4.4 23:11:47 33° SW 23:14:24 54° WNW 23:20:29 10° N
Cosmos 1048 Rocket 4.4 23:19:32 45° SE 23:20:15 48° ESE 23:25:19 10° NNE
Cosmos 332 Rocket 3.8 23:15:47 10° NNW 23:20:35 70° ENE 23:21:28 56° SE
USA 267 3.7 23:21:24 37° SSW 23:22:24 39° SW 23:28:30 10° WNW
Meteor 2-3 Rocket 3.6 23:21:02 52° S 23:22:30 89° E 23:28:14 10° N
Cosmos 2151 4.4 23:23:52 26° W 23:24:51 28° WNW 23:28:35 10° NNW
Helios 1A 2.8 23:24:53 83° S 23:25:02 88° W 23:29:14 10° NNW
Cosmos 405 3.6 23:26:02 10° N 23:29:08 52° NE 23:29:08 52° NE
SL-8 Rocket 4.4 23:30:58 34° SW 23:33:21 52° WNW 23:39:22 10° N
Meteor 1-26 Rocket 4.3 23:27:41 10° NNW 23:33:43 77° W 23:35:20 50° S
Cosmos 1825 4.4 23:32:56 16° W 23:33:43 17° WNW 23:36:15 10° NNW
Cosmos 1452 Rocket 3.4 23:28:44 10° NNW 23:34:02 86° WSW 23:35:06 58° SSE
Cosmos 1340 3.2 23:34:23 49° WNW 23:34:23 49° WNW 23:37:57 10° N
CZ-4C R/B 3.7 23:28:06 10° NNW 23:34:57 48° NE 23:42:49 10° ESE
ALOS 2 3.7 23:35:27 32° W 23:35:35 32° W 23:39:32 10° NNW
COSMOS 2455 2.9 23:29:54 10° NNW 23:35:59 78° ENE 23:38:24 38° SE
Cosmos 1408 Rocket 3.8 23:35:56 53° WSW 23:36:22 56° W 23:40:44 10° N
PSLV R/B 3.9 23:32:20 10° NNE 23:36:28 51° E 23:36:34 51° ESE
Cosmos 1603 4.2 23:36:25 41° SE 23:37:24 45° ESE 23:42:49 10° NE
Cosmos 1933 4.2 23:34:35 10° NNW 23:38:13 39° W 23:38:13 39° W
Cosmos 1151 Rocket 3.8 23:35:54 10° NNW 23:39:54 38° W 23:40:03 37° W
Cosmos 1500 Rocket 3.4 23:44:49 76° S 23:45:09 87° E 23:49:35 10° N
Cosmos 44 4.2 23:43:38 26° W 23:45:21 37° NW 23:49:30 10° NNE
Cosmos 1727 Rocket 4.0 23:39:55 10° NNW 23:46:08 72° W 23:48:04 46° SSW
Cosmos 2369 Rocket 2.4 23:40:59 10° NNW 23:46:34 66° ENE 23:48:49 36° SE
Resurs 1-4 Rocket 4.1 23:43:38 10° NE 23:46:48 16° E 23:48:44 13° ESE
GP-B 4.5 23:44:19 10° NNW 23:48:05 28° WNW 23:48:50 26° W
ISS -1.1 23:51:00 13° E 23:51:00 13° E 23:51:26 10° ENE
Cosmos 371 Rocket 3.7 23:45:34 10° NNW 23:50:10 44° WSW 23:50:25 44° WSW
SeaSat 1 3.9 23:46:57 10° NE 23:50:51 23° ESE 23:51:20 23° ESE
Helios 1B rocket 2.4 23:51:08 10° NNE 23:55:16 68° ESE 23:55:23 68° ESE
